Location: Chatou
(48.8898°N, 2.1586°E)
Time: 03:23:39
(UTC+00:00)

UNISAT 6 - Pass Details

Date: 16 December 2023
Orbit: 596 x 671 km, 97.7° (Epoch: 22 February)

Event Time Altitude Azimuth Distance (km) Brightness Sun altitude
Exits shadow 17:53:25 - 4° (N) 2,810 ? -18.4°
Reaches altitude 10° 17:55:31 10° 355° (N) 2,003 ? -18.7°
Maximum altitude 17:59:20 31° 294° (WNW) 1,089 ? -19.3°
Drops below altitude 10° 18:03:04 10° 232° (SW) 1,955 ? -19.9°
Sets 18:05:23 0° 222° (SW) 2,845 ? -20.3°
